Welcome to the New NWS' Forecast!
Most changes are behind the scenes, but click here for differences you might notice.
Latest weather observations around

Windsor Locks, Bradley International Airport (KBDL)

Using English Units (Switch to International System of Units)
Date/ Time (EDT) Wind (mph) Vis. (mi) Weather Sky Cond. Temp (°F) Rel. Humidity Wind Chill (°F) Heat Index (°F) Pressure Precip. (in)
Air Dwpt 6 hour Altimeter (inHg) Sea level (inHg) 1 hr 3 hr 6 hr
Max Min
Sep 18 18:51 W 3 10 Mostly Clear FEW070 FEW200 74 69     85%   75 29.76 29.75      
Sep 18 17:51 Calm 10 Partly Cloudy FEW060 SCT200 76 68     76%   77 29.75 29.74      
Sep 18 16:51 ENE 6 10 Mostly Cloudy FEW039 BKN047 BKN060 BKN200 76 68     76%   77 29.75 29.75   0  
Sep 18 15:51 NNE 7 10 Mostly Cloudy FEW014 FEW029 BKN100 BKN250 77 69     77%   78 29.76 29.75      
Sep 18 15:25 N 3 10 Mostly Cloudy FEW014 BKN032 BKN110 BKN250 75 69     82%   76 29.76        
Sep 18 14:51 NNE 3 10 Mostly Cloudy SCT021 BKN028 BKN100 BKN160 BKN250 74 69     85%   75 29.75 29.74 0    
Sep 18 14:27 ENE 3 10 Mostly Cloudy FEW008 SCT016 BKN060 BKN180 73 69     87%   74 29.75   0    
Sep 18 13:51 NNE 7 10 Light Rain FEW008 BKN019 BKN065 BKN130 73 69     87%   74 29.74 29.74 0   1
Sep 18 13:14 NNW 10 10 Mostly Cloudy SCT010 BKN017 BKN075 BKN160 72 69     91%   73 29.75   0    
Sep 18 12:01 N 14 2 Rain and Fog/Mist FEW008 BKN042 OVC060 70 69     97%     29.73   0    
Sep 18 11:51 NNW 10 2 Thunderstorms and Rain and Fog/Mist SCT006 BKN038 OVC050 70 68     93%     29.75 29.75 0    
Sep 18 11:40 N 9 2 Thunderstorms and Rain and Fog/Mist FEW006 BKN035 OVC050 70 68     93%     29.75   0    
Sep 18 11:37 N 8 2 Rain and Fog/Mist BKN035 OVC050 70 68     93%     29.74   0    
Sep 18 11:05 NNW 9 1 Heavy Rain and Fog/Mist FEW007 BKN028 OVC042 70 68     93%     29.75   0    
Sep 18 10:51 N 13 2 Rain and Fog/Mist FEW006 BKN018 OVC028 70 69     97%     29.74 29.74 0 0  
Sep 18 10:29 N 8 2 Light Rain and Fog/Mist FEW010 BKN015 OVC032 70 68     93%     29.74   0    
Sep 18 10:14   10 Cloudy FEW007 BKN009 OVC025 72 69     91%   73 29.74        
Sep 18 10:04   10 Cloudy FEW007 BKN023 OVC032 76 74     94%   78 29.75        
Sep 18 09:51 SW 8 10 Cloudy FEW007 BKN014 OVC038 76 74     94%   78 29.74 29.73 0    
Sep 18 09:35 SSW 10 10 Mostly Cloudy SCT010 BKN021 BKN040 BKN250 76 75     97%   78 29.74   0    
Sep 18 09:24 SSW 9 4 Light Rain and Fog/Mist FEW007 BKN012 OVC021 75 74     96%   77 29.73   0    
Sep 18 09:12 S 9 10 Cloudy FEW008 BKN023 OVC035 75 73     94%   77 29.74        
Sep 18 09:02 SSW 10 10 Cloudy SCT009 SCT014 OVC031 75 74     96%   77 29.74        
Sep 18 08:51 SSW 11 3 Mostly Cloudy FEW006 BKN009 BKN034 BKN250 75 73     94%   77 29.74 29.73 0    
Sep 18 08:24 SSW 11 3 Light Rain and Fog/Mist BKN009 BKN015 OVC028 74 73     97%   76 29.74   0    
Sep 18 08:23 S 10 3 Heavy Rain and Fog/Mist BKN009 BKN015 OVC028 74 73     97%   76 29.74   0    
Sep 18 08:15 SSW 11 1 Rain and Fog/Mist BKN008 OVC015 75 73     94%   77 29.74   0    
Sep 18 07:51 S 13 6 Light Rain and Fog/Mist FEW008 BKN010 OVC018 75 73     94%   77 29.75 29.75 0   0
Sep 18 07:23 S 10 7 Cloudy FEW008 BKN012 OVC022 74 72     94%   75 29.76        
Sep 18 06:51 S 9 7 Cloudy FEW008 BKN016 OVC024 74 72     94%   75 29.77 29.77      
Sep 18 06:03 S 10 3 Cloudy SCT005 SCT016 OVC028 73 72     96%   75 29.78        
Sep 18 05:51 S 13 3 Fog/Mist BKN005 BKN015 OVC027 73 71     94%   74 29.78 29.78 0    
Sep 18 05:16 S 10 3 Light Drizzle and Fog/Mist BKN006 OVC011 72 71     97%   73 29.79   0    
Sep 18 05:10 S 10 5 Light Drizzle and Fog/Mist SCT007 OVC011 71 70     96%   72 29.8   0    
Sep 18 04:55 SSE 9 5 Rain and Fog/Mist BKN008 BKN015 OVC021 71 70     96%   72 29.8   0    
Sep 18 04:51 SSE 8 2.5 Heavy Rain and Fog/Mist BKN009 BKN015 OVC023 71 70     96%   72 29.8 29.8 0 0  
Sep 18 04:41 S 10 3 Rain and Fog/Mist BKN012 BKN021 OVC032 71 70     96%   72 29.81   0    
Sep 18 04:29 SSE 13 5 Light Rain and Fog/Mist SCT011 BKN028 OVC041 71 70     96%   72 29.81   0    
Sep 18 03:51 SE 7 10 Cloudy FEW008 SCT017 OVC046 71 70     96%   72 29.84 29.83 0    
Sep 18 02:51 S 3 8 Light Rain FEW005 BKN020 OVC041 71 70     96%   72 29.88 29.87 0    
Sep 18 02:07 SE 6 6 Light Rain and Fog/Mist FEW005 BKN022 OVC075 71 70     96%   72 29.89   0    
Sep 18 01:51 SE 6 7 Light Rain FEW006 BKN035 OVC080 71 70     96%   72 29.9 29.9 0   0
Sep 18 01:30 SE 6 10 Cloudy SCT009 BKN034 OVC055 72 70     93%   73 29.91        
Sep 18 01:04 SSE 6 10 Cloudy SCT005 BKN010 OVC085 72 71     97%   73 29.93        
Sep 18 00:51 SSE 5 9 Cloudy SCT004 BKN006 OVC085 72 71     97%   73 29.93 29.93 0    
Sep 18 00:05 SSE 6 8 Light Rain BKN006 BKN014 OVC100 71 71     100%   73 29.94   0    
Sep 17 23:51 S 6 9 Light Rain SCT007 BKN012 OVC100 72 71     97%   73 29.94 29.94 0    
Sep 17 23:33 S 8 10 Light Rain FEW007 BKN014 BKN065 OVC130 72 71     97%   73 29.95   0    
Sep 17 22:51 S 9 10 Cloudy FEW008 FEW095 SCT110 OVC140 72 71     97%   73 29.95 29.95 0 0  
Sep 17 22:18 S 9 10 Cloudy SCT013 SCT080 BKN100 OVC140 73 71     94%   74 29.96        
Sep 17 21:51 S 8 10 Cloudy BKN013 BKN019 OVC130 73 71     94%   74 29.97 29.96 0    
Sep 17 21:14 S 7 10 Light Rain BKN013 OVC160 73 70     90%   74 29.98   0    
Sep 17 20:51 S 5 10 Light Rain SCT016 SCT110 OVC160 74 70     87%   75 29.98 29.97 0    
Sep 17 20:43 S 6 10 Mostly Cloudy BKN016 BKN120 BKN170 BKN210 74 69     85%   75 29.98        
Sep 17 19:51 S 8 10 Mostly Cloudy FEW075 BKN160 BKN200 75 69     82%   76 29.99 29.98      
Sep 17 18:51 SSW 8 10 Mostly Cloudy FEW043 BKN140 BKN220 76 68     76%   77 30 29.99      
Sep 17 17:51 SSW 11 10 Mostly Cloudy FEW043 SCT080 BKN230 78 68     71%   79 30.01 30      
Sep 17 16:51 SSW 11 10 Mostly Cloudy SCT043 BKN240 79 67     67%   80 30.02 30.01      
Sep 17 15:51 SSW 6 10 Mostly Cloudy SCT036 SCT045 BKN250 80 67     64%   82 30.03 30.03      
Sep 17 14:51 SSW 10 10 Mostly Cloudy BKN035 BKN045 BKN250 80 65     60%   82 30.06 30.05      
Sep 17 13:51 SSW 8 10 Mostly Cloudy FEW035 BKN200 BKN250 79 62     56%   79 30.08 30.07      
Sep 17 12:51 SSW 10 10 Mostly Cloudy FEW035 SCT200 BKN250 80 61     52%   81 30.1 30.09      
Sep 17 11:51 S 7 10 Mostly Cloudy FEW035 SCT200 BKN250 80 62     54%   81 30.11 30.11      
Sep 17 10:51 SW 7 10 Mostly Cloudy FEW025 FEW220 BKN250 78 65     64%   79 30.14 30.13      
Sep 17 09:51 S 6 10 Mostly Cloudy FEW015 FEW220 BKN250 75 67     76%   76 30.15 30.14      
Sep 17 08:51 S 7 10 Partly Cloudy FEW008 FEW220 SCT250 70 66     87%     30.16 30.15      
Sep 17 07:51 S 6 5 Fog/Mist FEW005 BKN250 67 66     97%     30.16 30.15      
Sep 17 06:51 S 8 5 Fog/Mist FEW001 FEW004 SCT250 66 65     96%     30.17 30.16      
Sep 17 06:23 S 6 4 Fog/Mist SCT003 BKN250 66 65     96%     30.16        
Sep 17 06:19 S 7 2.5 Fog/Mist SCT003 BKN250 66 65     96%     30.16        
Sep 17 05:51 S 5 2.5 Fog/Mist FEW002 OVC003 67 66     97%     30.16 30.16      
Sep 17 04:51 S 7 2 Fog/Mist SCT002 BKN003 67 66     97%     30.16 30.16      
Sep 17 04:30 S 7 3 Fog/Mist SCT002 BKN003 67 66     97%     30.16        
Sep 17 03:58 S 6 6 Fog/Mist SCT003 BKN060 67 66     97%     30.16        
Sep 17 03:51 SSE 5 6 Fog/Mist BKN003 BKN060 66 66     100%     30.16 30.16      
Sep 17 03:15 SSW 3 6 Patchy Fog and Fog/Mist BKN003 BKN065 67 67     100%     30.17        
Sep 17 02:51 S 6 8 Fog FEW003 SCT065 BKN250 67 67     100%     30.17 30.16      
Sep 17 01:51 SSE 5 10 Partly Cloudy FEW060 FEW080 SCT250 68 67     96%     30.18 30.17      
Sep 17 00:51 S 7 10 Mostly Cloudy FEW060 SCT080 BKN250 69 67     93%     30.19 30.18      
Sep 16 23:51 S 5 10 Mostly Cloudy SCT060 BKN080 BKN250 71 66     84%   72 30.19 30.19      
Sep 16 22:51 S 5 10 Mostly Cloudy BKN070 BKN200 72 66     82%   73 30.2 30.19      
Sep 16 21:51 S 6 10 Mostly Cloudy BKN075 73 63     71%   73 30.19 30.19      
Sep 16 20:51 S 8 10 Mostly Clear FEW085 FEW250 75 64     69%   75 30.18 30.18      
Sep 16 19:51 S 9 10 Mostly Clear FEW085 FEW250 76 68     76%   77 30.17 30.16      
Sep 16 18:51 S 5 10 Mostly Clear FEW045 FEW085 FEW250 81 65     58%   83 30.15 30.15      
Sep 16 17:51 SSW 3 10 Mostly Clear FEW045 FEW085 FEW250 84 65     53%   86 30.16 30.15      
Sep 16 16:51 SW 6 10 Mostly Clear FEW030 FEW075 FEW200 86 65     50%   88 30.16 30.15      
Sep 16 15:51 3 10 Mostly Clear FEW030 FEW075 87 65     48%   89 30.17 30.16      
Sep 16 14:51 Calm 10 Mostly Clear FEW030 FEW075 86 68     55%   89 30.18 30.17      
Sep 16 13:51 NW 6 10 Mostly Clear FEW030 86 68     55%   89 30.19 30.19      
Sep 16 12:51 5 10 Mostly Clear FEW020 82 68     63%   85 30.2 30.19      
Sep 16 11:51 Calm 10 Mostly Clear FEW010 79 68     69%   80 30.21 30.21      
Sep 16 10:51 NNE 5 10 Partly Cloudy SCT005 72 67     84%   73 30.23 30.22      
Sep 16 10:42 N 5 10 Partly Cloudy SCT005 71 66     84%   72 30.23        
Sep 16 10:03 NE 5 3 Fog/Mist BKN003 67 66     97%     30.23        
Sep 16 09:51 N 5 1.5 Fog/Mist OVC002 66 65     96%     30.24 30.23      
Sep 16 08:51 Calm 0.5 Fog BKN002 64 64     100%     30.22 30.22      
Sep 16 07:51 Calm 0.5 Fog VV002 63 63     100%     30.22 30.22      
Sep 16 07:20 NW 3 0.25 Fog VV002 62 62     100%     30.22        
Sep 16 07:13 Calm 0.5 Fog VV002 62 62     100%     30.22        
Sep 16 06:51 N 5 0.5 Fog/Mist BKN002 BKN006 62 62     100%     30.21 30.21      
Sep 16 06:48 N 5 0.5 Fog/Mist BKN002 BKN006 63 63     100%     30.21        
Sep 16 06:39 N 5 2 Mostly Clear FEW002 FEW006 62 62     100%     30.21        
Sep 16 06:11 NNE 5 3 Mostly Clear FEW002 FEW006 62 61     96%     30.2        
Sep 16 05:51 NNE 3 1 Fog/Mist BKN002 BKN006 63 62     97%     30.2 30.2      
Sep 16 05:49 Calm 1 Fog/Mist BKN002 BKN006 63 63     100%     30.2        
Sep 16 05:04 Calm 0.25 Fog VV002 62 62     100%     30.18        
Sep 16 04:51 Calm 0.5 Fog BKN002 OVC006 63 63     100%     30.18 30.18      
Sep 16 04:36 Calm 0.5 Fog BKN002 BKN006 63 62     97%     30.19        
Sep 16 03:51 Calm 0.75 Fog/Mist BKN002 BKN005 61 61     100%     30.18 30.18      
Sep 16 03:48 Calm 0.75 Fog/Mist BKN002 BKN005 61 61     100%     30.18        
Sep 16 02:51 Calm 10 Mostly Clear FEW003 65 64     97%     30.18 30.17      
Sep 16 02:49 Calm 10 Mostly Clear FEW003 64 64     100%     30.18        
Sep 16 01:51 SSE 5 10 Mostly Clear FEW050 65 64     97%     30.18 30.18      
Sep 16 00:51 S 5 10 Partly Cloudy SCT050 66 65     96%     30.19 30.18      
Sep 15 23:51 SSE 3 10 Mostly Clear FEW250 68 65     90%     30.19 30.19      
Sep 15 22:51 S 5 10 Mostly Clear FEW048 FEW200 68 65     90%     30.18 30.18      
Sep 15 21:51 S 6 10 Mostly Clear FEW050 FEW230 70 65     84%     30.18 30.18      
Sep 15 20:51 SSW 7 10 Mostly Clear FEW050 FEW240 72 65     79%   73 30.18 30.18      
Sep 15 19:51 Calm 10 Partly Cloudy FEW055 SCT220 72 67     84%   73 30.16 30.16      
Sep 15 18:51 S 5 10 Mostly Clear FEW035 FEW050 76 63     64%   76 30.16 30.16      
Sep 15 17:51 3 10 Mostly Clear FEW035 FEW050 81 62     53%   82 30.16 30.16      
Sep 15 16:51 NNE 6 10 Mostly Clear FEW035 83 61     48%   83 30.16 30.16      
Sep 15 15:51 Calm 10 Mostly Clear FEW035 82 61     49%   83 30.16 30.15      
Sep 15 14:51 5 10 Mostly Clear FEW035 82 63     53%   83 30.17 30.16      
Sep 15 13:51 3 10 Mostly Clear FEW030 80 65     60%   82 30.19 30.18      
Sep 15 12:51 3 10 Mostly Clear FEW025 79 66     65%   80 30.19 30.19      
Sep 15 11:51 E 3 10 Mostly Clear FEW010 74 66     76%   75 30.21 30.2      
Sep 15 11:27 Calm 10 Partly Cloudy SCT008 73 66     79%   74 30.22        
Sep 15 10:51 Calm 10 Mostly Cloudy BKN005 70 65     84%     30.23 30.22      
Sep 15 10:40 Calm 10 Cloudy OVC005 69 65     87%     30.23        
Sep 15 10:01 Calm 3 Fog/Mist OVC003 67 66     97%     30.23        
Sep 15 09:51 ENE 3 0.5 Fog/Mist OVC003 66 65     96%     30.23 30.22      
Sep 15 08:51 Calm 0.25 Fog VV002 65 65     100%     30.22 30.22      
Sep 15 08:06 N 7 0.25 Fog VV002 65 65     100%     30.22        
Sep 15 07:57 N 6 0.25 Fog VV002 65 65     100%     30.22        
Sep 15 07:51 N 6 0.25 Fog VV002 65 65     100%     30.22 30.22      
Sep 15 06:51 Calm 0.25 Fog/Mist BKN003 OVC029 64 64     100%     30.21 30.21      
Sep 15 05:51 Calm 0.25 Fog VV002 65 64     97%     30.2 30.2      
Sep 15 04:51 Calm 0.25 Fog/Mist OVC003 66 65     96%     30.2 30.2      
Sep 15 04:45 Calm 0.25 Fog/Mist OVC003 66 64     94%     30.2        
Sep 15 04:26 NNW 3 8 Cloudy BKN003 OVC030 65 65     100%     30.2        
Sep 15 03:51 S 7 10 Mostly Cloudy FEW005 BKN030 66 65     96%     30.19 30.19      
Sep 15 03:28 Calm 10 Cloudy FEW004 OVC031 66 65     96%     30.2        
Sep 15 02:51 Calm 10 Cloudy SCT004 OVC028 66 65     96%     30.21 30.2      
Sep 15 02:18 Calm 9 Cloudy SCT003 OVC025 66 65     96%     30.21        
Sep 15 01:51 SSW 3 8 Patchy Fog OVC003 66 65     96%     30.22 30.21      
Sep 15 00:51 Calm 10 Cloudy OVC004 66 65     96%     30.22 30.22      
Sep 15 00:36 Calm 10 Cloudy BKN003 OVC017 65 64     97%     30.23        
Sep 14 23:51 SSE 3 10 Mostly Cloudy FEW003 FEW008 BKN021 65 65     100%     30.22 30.22      
Sep 14 23:32 Calm 10 Mostly Cloudy FEW008 BKN021 65 64     97%     30.22        
Sep 14 22:51 Calm 10 Mostly Clear FEW100 65 64     97%     30.22 30.22      
Sep 14 21:51 Calm 10 Mostly Clear FEW100 66 65     96%     30.22 30.22      
Sep 14 20:51 Calm 10 Mostly Clear FEW120 69 66     90%     30.21 30.21      
Sep 14 19:51 Calm 10 Mostly Clear FEW075 FEW110 69 67     93%     30.2 30.2      
Sep 14 18:51 Calm 10 Mostly Clear FEW024 FEW038 FEW110 73 65     76%   74 30.2 30.19      
Sep 14 17:51 Calm 10 Mostly Cloudy FEW023 BKN038 BKN130 74 64     71%   74 30.21 30.21      
Sep 14 16:51 W 6 10 Mostly Cloudy BKN038 BKN085 75 65     71%   76 30.22 30.21      
Sep 14 15:51 Calm 10 Cloudy FEW022 OVC036 74 65     74%   74 30.23 30.22      
Sep 14 14:51 3 10 Cloudy SCT025 OVC034 75 65     71%   76 30.23 30.23      
May 15 09:43 S 10 2 Haze OVC005 65 60     84%     29.86        
May 14 11:51 7 10 Mostly Cloudy BKN022 62 52     70%     30 30      
May 13 20:00 SSW 8 10 Cloudy BKN014 OVC100 54 49     83%     30.1        
May 13 17:51 SW 9 10 Mostly Cloudy FEW025 SCT110 BKN130 57 48     72%     30.1 30.1      
Jun 10 10:51 SSW 9 10 Mostly Cloudy FEW070 SCT095 BKN250 80 53     39%   80 29.97 29.97      
Jun 07 15:51 6 10 Mostly Clear FEW060 FEW080 74 45     36%   73 29.95 29.94      
Jun 07 09:51 N 10 10 Mostly Cloudy FEW020 BKN055 58 49     72%     29.99 29.99